Find Starlink 3625

NORAD ID: 51777 Int'l Des: 2022-017 Owner: SPXS Country: US Constellation: starlink operational
LEOCIRCULAR

Live Position

Loading 3D Globe...

About Starlink 3625

Description loading...

Upcoming Passes

Passes for default location (London). Set your location on the main map for personalized predictions.

Altitude History

Loading altitude history...

Two-Line Element Set

1 51777U 22017K 26127.15226920 .00000425 00000-0 44818-4 0 9994
2 51777 53.2184 76.6439 0001558 90.4781 269.6389 15.08828362231423
Epoch: May 7, 2026 • Age: 6 hours

Current Status

Altitude 541.5 km
Velocity 7.59 km/s
Sub-Earth Point -4.59°S, 56.95°E
Launch Date Feb 25, 2022
Age 4.1 years
Type internet

Technical Details

Classification Payload
Mass 297.00 kg
Dry Mass 275.00 kg
Total Mass 297.00 kg
Length 0.20 m
Diameter 2.80 m
Span 9.00 m
Shape Box + pan
Manufacturer SPXS
Bus Type Starlink
Phase Status In Orbit
Owner/State SPXS/US

Most Searched